Location: Unspecified
(0.0000°N, 0.0000°E)
Time: 07:54:28
(UTC+02:00)

Palapa 6 Rocket - Visible Passes

Search period start: 02 May 2016 00:00
Search period end: 12 May 2016 00:00
Orbit: 485 x 1223 km, 22.7° (Epoch: 01 May)

Date Brightness Start Highest point End Pass type
(mag) Time Alt. Az. Time Alt. Az. Time Alt. Az.
02 May 5.3 05:18:28 33° NE 05:18:28 33° NE 05:24:05 10° E visible
02 May 4.2 07:00:28 10° WNW 07:07:05 86° SSW 07:14:55 10° ESE visible
03 May 5.6 05:06:10 28° ENE 05:06:10 28° ENE 05:10:04 10° E visible
03 May 4.1 06:48:09 19° WNW 06:53:03 76° SSW 07:00:41 10° ESE visible
04 May 6.0 04:53:52 20° E 04:53:52 20° E 04:56:04 10° E visible
04 May 4.0 06:35:52 31° W 06:39:03 67° SSW 06:46:26 10° ESE visible
05 May 6.5 04:41:34 12° E 04:41:34 12° E 04:42:02 10° E visible
05 May 4.0 06:23:32 46° WSW 06:25:06 58° SSW 06:32:08 10° SE visible
06 May 4.0 06:11:12 50° SSW 06:11:12 50° SSW 06:17:50 10° SE visible
07 May 4.7 05:58:47 36° SSE 05:58:47 36° SSE 06:03:30 10° SE visible
08 May 5.4 05:46:18 23° SSE 05:46:18 23° SSE 05:49:10 10° SE visible
08 May 5.6 07:29:24 10° SW 07:33:17 17° SSW 07:37:34 10° SSE visible
09 May 6.0 05:33:47 14° SE 05:33:47 14° SE 05:34:49 10° SE visible
09 May 5.6 07:16:19 10° SW 07:19:28 14° S 07:22:55 10° SSE visible
10 May 5.7 07:03:28 10° SSW 07:05:43 12° S 07:08:06 10° SSE visible
11 May 5.8 06:51:33 10° S 06:51:58 10° S 06:52:23 10° S visible
